{"data":{"norad_id":47361,"intl_designator":"2021-005N","name":"STARLINK-2071","alt_names":[],"object_type":"PAYLOAD","status":"ACTIVE","operator":null,"country":"US","launch_date":"2021-01-20","launch_site_code":"AFETR","launch_vehicle":null,"mission":null,"orbit_class":"UNKNOWN","rcs_meters":null,"size_class":null,"mass_kg":null,"dimensions":null,"purposes":["comms"],"wikipedia_slug":null,"has_3d_model":false,"image_url":null,"decayed_at":null,"tle_current":{"epoch":"2026-05-24T23:50:37.243104Z","epoch_age_seconds":71791,"freshness":"FRESH","line1":"1 47361U 21005N   26144.99348661  .00005206  00000+0  19245-3 0  9998","line2":"2 47361  53.1579  42.2842 0001869 115.6302 244.4892 15.29385241295062","mean_motion":15.29385241,"eccentricity":0.0001869,"inclination_deg":53.1579,"raan_deg":42.2842,"arg_perigee_deg":115.6302,"mean_anomaly_deg":244.4892,"bstar":0.00019245,"rev_number":29506,"period_min":94.155479037999,"perigee_km":476.36752648854,"apogee_km":478.93021924782,"semimajor_km":6855.7858728682,"source":"CELESTRAK","updated_at":"2026-05-25T13:38:16.525489Z"}}}